When you browse on this site, cookies collect data to enhance your experience and personalize the content and advertising you see.
Visit our Privacy Policy to learn more. By continuing to use the site, you agree to this use of cookies and data.

Hourly Weather Mendoza

Today, 22 September, Tuesday

Time Temperature Precipitation Wind Pressure Humidity
00:00 +14°C° 0 mm 2 mps 698 mmHg 37%
01:00 +14°C° 0 mm 2 mps 697 mmHg 37%
02:00 +13°C° 0 mm 2 mps 697 mmHg 38%
03:00 +13°C° 0 mm 2 mps 697 mmHg 39%
04:00 +12°C° 0 mm 2 mps 697 mmHg 40%
05:00 +14°C° 0 mm 2 mps 697 mmHg 37%
06:00 +15°C° 0 mm 2 mps 698 mmHg 33%
07:00 +16°C° 0 mm 2 mps 698 mmHg 29%
08:00 +18°C° 0 mm 2 mps 698 mmHg 26%
09:00 +20°C° 0 mm 2 mps 698 mmHg 24%
10:00 +21°C° 0 mm 2 mps 699 mmHg 22%
11:00 +24°C° 0 mm 2 mps 698 mmHg 20%
12:00 +25°C° 0 mm 2 mps 698 mmHg 18%
13:00 +27°C° 0 mm 2 mps 698 mmHg 16%
14:00 +27°C° 0 mm 2 mps 698 mmHg 15%
15:00 +27°C° 0 mm 2 mps 697 mmHg 15%
16:00 +28°C° 0 mm 2 mps 697 mmHg 14%
17:00 +26°C° 0 mm 2 mps 698 mmHg 17%
18:00 +24°C° 0 mm 1 mps 698 mmHg 19%
19:00 +21°C° 0 mm 1 mps 698 mmHg 22%
20:00 +20°C° 0 mm 1 mps 698 mmHg 25%
21:00 +19°C° 0 mm 1 mps 698 mmHg 28%
22:00 +16°C° 0 mm 0 mps 698 mmHg 31%
23:00 +18°C° 0 mm 1 mps 698 mmHg 31%

Tomorrow, 23 September, Wednesday

Time Temperature Precipitation Wind Pressure Humidity
00:00 +16°C° 0 mm 1 mps 698 mmHg 32%
01:00 +16°C° 0 mm 1 mps 698 mmHg 32%
02:00 +16°C° 0 mm 1 mps 698 mmHg 33%
03:00 +15°C° 0 mm 2 mps 697 mmHg 34%
04:00 +15°C° 0 mm 2 mps 697 mmHg 35%
05:00 +16°C° 0 mm 2 mps 698 mmHg 34%
06:00 +17°C° 0 mm 2 mps 698 mmHg 32%
07:00 +18°C° 0 mm 2 mps 699 mmHg 30%
08:00 +19°C° 0 mm 3 mps 699 mmHg 28%
09:00 +21°C° 0 mm 3 mps 699 mmHg 26%
10:00 +24°C° 0 mm 3 mps 699 mmHg 23%
11:00 +25°C° 0 mm 3 mps 699 mmHg 22%
12:00 +26°C° 0 mm 3 mps 698 mmHg 20%
13:00 +27°C° 0 mm 3 mps 698 mmHg 19%
14:00 +28°C° 0 mm 2 mps 697 mmHg 18%
15:00 +28°C° 0 mm 2 mps 697 mmHg 17%
16:00 +28°C° 0 mm 1 mps 696 mmHg 16%
17:00 +26°C° 0 mm 1 mps 697 mmHg 19%
18:00 +25°C° 0 mm 1 mps 697 mmHg 21%
19:00 +23°C° 0 mm 1 mps 697 mmHg 23%
20:00 +22°C° 0 mm 1 mps 697 mmHg 26%
21:00 +21°C° 0 mm 1 mps 697 mmHg 28%
22:00 +20°C° 0 mm 1 mps 696 mmHg 30%
23:00 +20°C° 0 mm 1 mps 696 mmHg 31%

Day after tomorrow, 24 September, Thursday

Time Temperature Precipitation Wind Pressure Humidity
00:00 +20°C° 0 mm 1 mps 696 mmHg 31%
01:00 +18°C° 0 mm 2 mps 695 mmHg 32%
02:00 +18°C° 0 mm 2 mps 695 mmHg 32%
03:00 +18°C° 0 mm 2 mps 695 mmHg 33%
04:00 +17°C° 0 mm 2 mps 695 mmHg 33%
05:00 +19°C° 0 mm 2 mps 695 mmHg 31%
06:00 +20°C° 0 mm 3 mps 696 mmHg 29%
07:00 +21°C° 0 mm 3 mps 696 mmHg 27%
08:00 +24°C° 0 mm 3 mps 696 mmHg 25%
09:00 +26°C° 0 mm 3 mps 696 mmHg 23%
10:00 +27°C° 0 mm 3 mps 696 mmHg 21%
11:00 +28°C° 0 mm 3 mps 696 mmHg 19%
12:00 +29°C° 0 mm 3 mps 695 mmHg 18%
13:00 +30°C° 0 mm 3 mps 695 mmHg 16%
14:00 +30°C° 0 mm 4 mps 695 mmHg 16%
15:00 +30°C° 0 mm 4 mps 694 mmHg 16%
16:00 +30°C° 0 mm 5 mps 694 mmHg 17%
17:00 +28°C° 0 mm 4 mps 695 mmHg 20%
18:00 +27°C° 0 mm 3 mps 695 mmHg 23%
19:00 +25°C° 0 mm 3 mps 695 mmHg 27%
20:00 +24°C° 0 mm 3 mps 695 mmHg 28%
21:00 +24°C° 0 mm 3 mps 696 mmHg 29%
22:00 +22°C° 0 mm 3 mps 696 mmHg 30%
23:00 +21°C° 0 mm 4 mps 696 mmHg 36%

25 September, Friday

Time Temperature Precipitation Wind Pressure Humidity
00:00 +21°C° 0 mm 5 mps 695 mmHg 41%
01:00 +20°C° 0 mm 7 mps 695 mmHg 47%
02:00 +19°C° 0 mm 6 mps 695 mmHg 48%
03:00 +19°C° 0 mm 6 mps 695 mmHg 49%
04:00 +19°C° 0 mm 5 mps 695 mmHg 50%
05:00 +19°C° 0 mm 6 mps 695 mmHg 50%
06:00 +20°C° 0 mm 6 mps 696 mmHg 49%
07:00 +20°C° 0 mm 7 mps 696 mmHg 49%
08:00 +21°C° 0.1 mm 6 mps 696 mmHg 44%
09:00 +22°C° 0.1 mm 6 mps 696 mmHg 40%
10:00 +24°C° 0.1 mm 6 mps 696 mmHg 35%
11:00 +24°C° 0.2 mm 6 mps 696 mmHg 35%
12:00 +23°C° 0.2 mm 5 mps 696 mmHg 35%
13:00 +23°C° 0.2 mm 5 mps 695 mmHg 35%
14:00 +23°C° 0.3 mm 6 mps 695 mmHg 36%
15:00 +22°C° 0.3 mm 6 mps 695 mmHg 38%
16:00 +22°C° 0.3 mm 7 mps 695 mmHg 39%
17:00 +20°C° 0.2 mm 7 mps 696 mmHg 45%
18:00 +17°C° 0.2 mm 6 mps 697 mmHg 51%
19:00 +16°C° 0.2 mm 6 mps 698 mmHg 57%
20:00 +15°C° 0.1 mm 5 mps 698 mmHg 62%
21:00 +15°C° 0.1 mm 5 mps 699 mmHg 66%
22:00 +14°C° 0.1 mm 4 mps 699 mmHg 70%
23:00 +14°C° 0.1 mm 4 mps 699 mmHg 71%

26 September, Saturday

Time Temperature Precipitation Wind Pressure Humidity
00:00 +13°C° 0.1 mm 3 mps 699 mmHg 72%
01:00 +13°C° 0.1 mm 3 mps 698 mmHg 72%
02:00 +13°C° 0 mm 3 mps 698 mmHg 70%
03:00 +13°C° 0 mm 3 mps 698 mmHg 68%
04:00 +14°C° 0 mm 2 mps 697 mmHg 66%
05:00 +15°C° 0 mm 2 mps 698 mmHg 59%
06:00 +15°C° 0 mm 2 mps 698 mmHg 52%
07:00 +16°C° 0 mm 2 mps 698 mmHg 45%
08:00 +18°C° 0 mm 2 mps 698 mmHg 39%
09:00 +19°C° 0 mm 2 mps 698 mmHg 33%
10:00 +20°C° 0 mm 3 mps 698 mmHg 27%
11:00 +21°C° 0 mm 2 mps 698 mmHg 25%
12:00 +23°C° 0 mm 2 mps 698 mmHg 23%
13:00 +23°C° 0 mm 2 mps 697 mmHg 22%
14:00 +24°C° 0 mm 2 mps 697 mmHg 21%
15:00 +24°C° 0 mm 2 mps 697 mmHg 20%
16:00 +24°C° 0 mm 2 mps 697 mmHg 20%
17:00 +21°C° 0 mm 3 mps 697 mmHg 21%
18:00 +20°C° 0 mm 3 mps 698 mmHg 22%
19:00 +18°C° 0 mm 3 mps 698 mmHg 24%
20:00 +17°C° 0 mm 3 mps 698 mmHg 27%
21:00 +16°C° 0 mm 2 mps 698 mmHg 30%
22:00 +15°C° 0 mm 2 mps 698 mmHg 34%
23:00 +15°C° 0 mm 1 mps 698 mmHg 35%

27 September, Sunday

Time Temperature Precipitation Wind Pressure Humidity
00:00 +14°C° 0 mm 1 mps 697 mmHg 37%
01:00 +14°C° 0 mm 1 mps 697 mmHg 39%
02:00 +13°C° 0 mm 1 mps 697 mmHg 40%
03:00 +13°C° 0 mm 1 mps 697 mmHg 42%
04:00 +12°C° 0 mm 1 mps 697 mmHg 44%
05:00 +14°C° 0 mm 1 mps 697 mmHg 40%
06:00 +15°C° 0 mm 1 mps 698 mmHg 36%
07:00 +18°C° 0 mm 1 mps 699 mmHg 31%
08:00 +18°C° 0 mm 2 mps 698 mmHg 29%
09:00 +20°C° 0 mm 2 mps 698 mmHg 27%
10:00 +21°C° 0 mm 3 mps 698 mmHg 25%
11:00 +22°C° 0 mm 3 mps 698 mmHg 23%
12:00 +23°C° 0 mm 4 mps 697 mmHg 22%
13:00 +25°C° 0 mm 4 mps 697 mmHg 21%
14:00 +25°C° 0 mm 3 mps 696 mmHg 19%
15:00 +26°C° 0 mm 3 mps 696 mmHg 18%
16:00 +26°C° 0 mm 2 mps 696 mmHg 17%
17:00 +24°C° 0 mm 2 mps 696 mmHg 20%
18:00 +23°C° 0 mm 2 mps 696 mmHg 22%
19:00 +20°C° 0 mm 2 mps 696 mmHg 24%
20:00 +19°C° 0 mm 2 mps 696 mmHg 25%
21:00 +19°C° 0 mm 2 mps 696 mmHg 26%
22:00 +19°C° 0 mm 2 mps 696 mmHg 27%
23:00 +18°C° 0 mm 2 mps 696 mmHg 28%
Show more